OMD160 KFLL-KMZJ

Flight info

Callsign OMD160
Flight time N/A
Altitude 38000
Route HROCK2 SMELZ Q116 JAWJA CEW PENSI MEI YUYUN CIKAN ELP J2 TUS
Aircraft A320/M-SDE3FGHIRWY/LB1

Departure

Time N/A
Airport Fort Lauderdale Hollywood International Airport (KFLL)

Arrival

Time 2026-05-08 18:04
Airport Pinal Airpark (KMZJ)
Time Latitude Longitude Altitude Speed Heading
2026-05-08 17:08 31.95583 -105.22171 37834 ft 414 kts 258°
2026-05-08 17:08 31.95155 -105.25526 37835 ft 414 kts 258°
2026-05-08 17:09 31.94291 -105.32253 37836 ft 415 kts 259°
2026-05-08 17:09 31.93430 -105.38945 37823 ft 417 kts 259°
2026-05-08 17:10 31.92557 -105.45718 37823 ft 418 kts 259°
2026-05-08 17:10 31.91677 -105.52496 37831 ft 419 kts 259°
2026-05-08 17:11 31.90787 -105.59293 37835 ft 420 kts 259°
2026-05-08 17:11 31.89904 -105.66046 37846 ft 420 kts 259°
2026-05-08 17:12 31.89013 -105.72867 37828 ft 423 kts 259°
2026-05-08 17:12 31.88107 -105.79730 37827 ft 424 kts 259°
2026-05-08 17:13 31.87197 -105.86566 37832 ft 425 kts 259°
2026-05-08 17:13 31.86279 -105.93481 37837 ft 426 kts 259°
2026-05-08 17:14 31.85359 -106.00383 37873 ft 427 kts 259°
2026-05-08 17:14 31.84438 -106.07260 37900 ft 429 kts 260°
2026-05-08 17:15 31.83498 -106.14215 37943 ft 431 kts 260°
2026-05-08 17:15 31.82543 -106.21185 37991 ft 432 kts 260°
2026-05-08 17:16 31.81733 -106.28124 38030 ft 434 kts 267°
2026-05-08 17:16 31.82130 -106.35222 38052 ft 435 kts 275°
2026-05-08 17:17 31.82684 -106.42351 38025 ft 438 kts 275°
2026-05-08 17:17 31.83216 -106.49493 38015 ft 439 kts 275°
2026-05-08 17:18 31.83744 -106.56685 38025 ft 441 kts 275°
2026-05-08 17:18 31.84270 -106.63844 38059 ft 442 kts 275°
2026-05-08 17:19 31.84804 -106.71073 38061 ft 442 kts 275°
2026-05-08 17:19 31.85322 -106.78247 38062 ft 443 kts 275°
2026-05-08 17:20 31.85841 -106.85490 38032 ft 444 kts 275°
2026-05-08 17:20 31.86102 -106.89105 37834 ft 444 kts 275°
2026-05-08 17:20 31.86276 -106.91505 37829 ft 444 kts 275°
2026-05-08 17:21 31.86798 -106.98751 37835 ft 444 kts 275°
2026-05-08 17:21 31.87304 -107.05963 37848 ft 444 kts 275°
2026-05-08 17:22 31.87807 -107.13216 37845 ft 445 kts 276°
2026-05-08 17:22 31.88311 -107.20500 37855 ft 446 kts 275°
2026-05-08 17:23 31.88808 -107.27739 37859 ft 446 kts 275°
2026-05-08 17:23 31.89304 -107.35019 37879 ft 447 kts 275°
2026-05-08 17:24 31.89794 -107.42327 37870 ft 447 kts 276°
2026-05-08 17:24 31.90283 -107.49636 37883 ft 447 kts 276°
2026-05-08 17:25 31.90765 -107.56948 37885 ft 447 kts 276°
2026-05-08 17:25 31.91244 -107.64216 37898 ft 448 kts 277°
2026-05-08 17:26 31.91727 -107.71540 37900 ft 449 kts 277°
2026-05-08 17:26 31.92197 -107.78848 37888 ft 450 kts 277°
2026-05-08 17:27 31.92688 -107.86196 37890 ft 450 kts 277°
2026-05-08 17:27 31.93193 -107.93553 37900 ft 451 kts 277°
2026-05-08 17:28 31.93692 -108.00929 37909 ft 451 kts 277°
2026-05-08 17:28 31.94177 -108.08297 37923 ft 451 kts 277°
2026-05-08 17:29 31.94655 -108.15631 37915 ft 451 kts 277°
2026-05-08 17:29 31.95139 -108.23003 37926 ft 451 kts 277°
2026-05-08 17:30 31.95613 -108.30376 37925 ft 451 kts 277°
2026-05-08 17:30 31.96081 -108.37698 37924 ft 451 kts 277°
2026-05-08 17:31 31.96549 -108.45072 37919 ft 451 kts 277°
2026-05-08 17:31 31.97009 -108.52445 37936 ft 450 kts 277°
2026-05-08 17:32 31.97458 -108.59771 37940 ft 450 kts 277°
2026-05-08 17:32 31.97910 -108.67136 37942 ft 450 kts 277°
2026-05-08 17:33 31.98360 -108.74489 37939 ft 450 kts 277°
2026-05-08 17:33 31.98794 -108.81736 37926 ft 449 kts 277°
2026-05-08 17:34 31.99224 -108.89084 37937 ft 449 kts 277°
2026-05-08 17:34 31.99658 -108.96433 37940 ft 448 kts 277°
2026-05-08 17:35 32.00093 -109.03708 37948 ft 448 kts 277°
2026-05-08 17:35 32.00520 -109.11062 37939 ft 448 kts 277°
2026-05-08 17:36 32.00934 -109.18344 37938 ft 447 kts 277°
2026-05-08 17:36 32.01348 -109.25650 37953 ft 447 kts 277°
2026-05-08 17:37 32.01759 -109.32942 37951 ft 446 kts 277°
2026-05-08 17:37 32.02166 -109.40241 37954 ft 446 kts 277°
2026-05-08 17:38 32.02567 -109.47539 37925 ft 445 kts 277°
2026-05-08 17:38 32.02963 -109.54817 37942 ft 445 kts 277°
2026-05-08 17:39 32.03357 -109.62047 37951 ft 444 kts 277°
2026-05-08 17:39 32.03745 -109.69333 37951 ft 444 kts 277°
2026-05-08 17:40 32.04126 -109.76592 37948 ft 444 kts 277°
2026-05-08 17:40 32.04499 -109.83808 37935 ft 443 kts 277°
2026-05-08 17:41 32.04875 -109.91072 37952 ft 443 kts 277°
2026-05-08 17:41 32.05246 -109.98328 37960 ft 443 kts 277°
2026-05-08 17:42 32.05608 -110.05542 37951 ft 443 kts 277°
2026-05-08 17:42 32.05971 -110.12814 37952 ft 443 kts 277°
2026-05-08 17:43 32.06327 -110.20072 37955 ft 442 kts 276°
2026-05-08 17:43 32.06670 -110.27281 37973 ft 442 kts 276°
2026-05-08 17:44 32.06838 -110.30888 37586 ft 440 kts 276°
2026-05-08 17:44 32.07006 -110.34514 36976 ft 442 kts 277°
2026-05-08 17:44 32.07174 -110.38141 36283 ft 445 kts 277°
2026-05-08 17:44 32.07346 -110.41796 35575 ft 449 kts 277°
2026-05-08 17:45 32.07521 -110.45494 34839 ft 453 kts 277°
2026-05-08 17:45 32.07692 -110.49175 34101 ft 457 kts 277°
2026-05-08 17:45 32.07840 -110.52440 33360 ft 460 kts 277°
2026-05-08 17:45 32.08009 -110.56223 32494 ft 464 kts 277°
2026-05-08 17:46 32.08179 -110.60049 31621 ft 467 kts 277°
2026-05-08 17:46 32.08348 -110.63890 30767 ft 470 kts 277°
2026-05-08 17:46 32.08519 -110.67750 29811 ft 473 kts 276°
2026-05-08 17:46 32.08689 -110.71635 28698 ft 476 kts 276°
2026-05-08 17:47 32.08860 -110.75552 27695 ft 476 kts 276°
2026-05-08 17:47 32.09024 -110.79422 26966 ft 471 kts 276°
2026-05-08 17:47 32.09183 -110.83250 26219 ft 465 kts 276°
2026-05-08 17:47 32.09292 -110.85766 25747 ft 461 kts 277°
2026-05-08 17:48 32.10278 -110.90524 24787 ft 443 kts 298°
2026-05-08 17:48 32.11956 -110.93511 24064 ft 431 kts 316°
2026-05-08 17:48 32.14256 -110.95691 23289 ft 420 kts 333°
2026-05-08 17:48 32.16945 -110.96906 22440 ft 411 kts 347°
2026-05-08 17:49 32.19684 -110.97656 21606 ft 408 kts 349°
2026-05-08 17:49 32.22442 -110.98381 20828 ft 404 kts 349°
2026-05-08 17:49 32.25175 -110.99092 20102 ft 400 kts 349°
2026-05-08 17:49 32.27894 -110.99793 19390 ft 396 kts 349°
2026-05-08 17:50 32.30579 -111.00480 18717 ft 393 kts 349°
2026-05-08 17:50 32.33244 -111.01158 18011 ft 389 kts 349°
2026-05-08 17:50 32.35883 -111.01829 17261 ft 386 kts 349°
2026-05-08 17:50 32.38467 -111.02495 16551 ft 383 kts 349°
2026-05-08 17:51 32.41058 -111.03173 15836 ft 380 kts 349°
2026-05-08 17:51 32.43634 -111.03846 15238 ft 377 kts 349°
2026-05-08 17:51 32.46216 -111.04523 15033 ft 380 kts 349°
2026-05-08 17:51 32.48789 -111.05252 14967 ft 381 kts 343°
2026-05-08 17:52 32.51171 -111.06669 14994 ft 385 kts 330°
2026-05-08 17:52 32.53420 -111.08380 14989 ft 385 kts 329°
2026-05-08 17:52 32.57881 -111.11806 14997 ft 385 kts 329°
2026-05-08 17:53 32.60141 -111.13547 14625 ft 379 kts 329°
2026-05-08 17:53 32.62291 -111.15278 13854 ft 379 kts 323°
2026-05-08 17:53 32.64154 -111.17513 13045 ft 378 kts 314°
2026-05-08 17:53 32.65890 -111.19834 12334 ft 374 kts 308°
2026-05-08 17:54 32.67050 -111.22541 11667 ft 372 kts 288°
2026-05-08 17:54 32.67361 -111.25574 11017 ft 370 kts 271°
2026-05-08 17:54 32.67271 -111.28609 10343 ft 367 kts 269°
2026-05-08 17:54 32.67156 -111.31562 10186 ft 348 kts 269°
2026-05-08 17:55 32.66867 -111.34352 10070 ft 333 kts 260°
2026-05-08 17:55 32.66376 -111.36979 9951 ft 319 kts 259°
2026-05-08 17:55 32.65589 -111.39387 9835 ft 311 kts 239°
2026-05-08 17:55 32.64219 -111.41334 9708 ft 303 kts 225°
2026-05-08 17:56 32.62497 -111.42652 9585 ft 287 kts 205°
2026-05-08 17:56 32.60667 -111.43270 9458 ft 268 kts 188°
2026-05-08 17:56 32.58868 -111.43366 9335 ft 250 kts 178°
2026-05-08 17:56 32.57278 -111.42830 9210 ft 231 kts 146°
2026-05-08 17:57 32.56085 -111.41706 9113 ft 207 kts 136°
2026-05-08 17:57 32.55096 -111.40597 8993 ft 184 kts 130°
2026-05-08 17:57 32.54275 -111.39455 8485 ft 187 kts 127°
2026-05-08 17:57 32.53459 -111.38174 7671 ft 202 kts 123°
2026-05-08 17:58 32.52681 -111.36726 6816 ft 214 kts 117°
2026-05-08 17:58 32.52100 -111.35096 6025 ft 215 kts 102°
2026-05-08 17:58 32.52196 -111.33382 5322 ft 207 kts 64°
2026-05-08 17:58 32.52934 -111.32071 5063 ft 180 kts 43°
2026-05-08 17:59 32.53769 -111.31101 5002 ft 157 kts 39°
2026-05-08 17:59 32.54600 -111.30311 5012 ft 152 kts 31°
2026-05-08 17:59 32.55516 -111.29741 4956 ft 149 kts 19°
2026-05-08 17:59 32.56475 -111.29266 4636 ft 150 kts 18°
2026-05-08 18:00 32.57460 -111.28817 4358 ft 151 kts 13°
2026-05-08 18:00 32.59227 -111.29454 3845 ft 141 kts 298°
2026-05-08 18:00 32.59568 -111.30554 3510 ft 142 kts 273°
2026-05-08 18:01 32.59337 -111.31682 3186 ft 143 kts 245°
2026-05-08 18:01 32.58823 -111.32693 3028 ft 144 kts 237°
2026-05-08 18:01 32.58253 -111.33668 3013 ft 148 kts 235°
2026-05-08 18:01 32.57618 -111.34628 3021 ft 149 kts 226°
2026-05-08 18:02 32.56814 -111.35394 3018 ft 149 kts 213°
2026-05-08 18:02 32.56179 -111.35726 3074 ft 150 kts 198°
2026-05-08 18:02 32.54776 -111.35719 3135 ft 148 kts 166°
2026-05-08 18:02 32.53845 -111.35284 2828 ft 141 kts 155°
2026-05-08 18:03 32.53003 -111.34725 2490 ft 135 kts 144°
2026-05-08 18:03 32.52280 -111.34041 2182 ft 129 kts 135°
2026-05-08 18:03 32.51637 -111.33300 1951 ft 129 kts 133°
2026-05-08 18:03 32.51049 -111.32601 1884 ft 101 kts 137°
2026-05-08 18:04 32.50677 -111.32176 1894 ft 38 kts 135°
2026-05-08 18:04 32.50546 -111.32017 1892 ft 8 kts 133°
2026-05-08 18:04 32.50492 -111.31950 1898 ft 14 kts 137°
2026-05-08 18:04 32.50404 -111.31853 1891 ft 18 kts 136°
2026-05-08 18:05 32.50390 -111.31763 1893 ft 12 kts 43°
2026-05-08 18:05 32.50426 -111.31718 1893 ft 10 kts 37°
2026-05-08 18:05 32.50493 -111.31748 1894 ft 18 kts 339°
2026-05-08 18:05 32.50582 -111.31811 1902 ft 9 kts 318°
2026-05-08 18:06 32.50638 -111.31873 1892 ft 13 kts 316°
2026-05-08 18:06 32.50712 -111.31966 1892 ft 19 kts 315°
2026-05-08 18:06 32.50771 -111.32035 1900 ft 17 kts 314°
2026-05-08 18:06 32.50872 -111.32155 1898 ft 11 kts 313°
2026-05-08 18:07 32.50915 -111.32211 1887 ft 17 kts 312°
2026-05-08 18:07 32.50997 -111.32303 1881 ft 11 kts 321°
2026-05-08 18:07 32.51078 -111.32294 1894 ft 9 kts 43°
2026-05-08 18:07 32.51099 -111.32268 1882 ft 2 kts 46°
2026-05-08 18:08 32.51104 -111.32262 1892 ft 0 kts 45°